COSMOS 2458 (734) (36113 NORAD) Tracking and Keplerian Element Data

This shows tracking and keplerian element data for the satellite.

Feedback or suggestion? Click here.




ElementValue
Catalog36113
NameCOSMOS 2458 (734)
Epoch Orbit6998
Epoch Day345.47658219
Epoch Year2018
RAAN164.9628
Inclination64.1799
Eccentricity0.0003113
Argument of Perigee53.9764
Mean Anonmoly9.314
Mean Motion2.13092023
Decay Rate6.9E-07
L11 36113U 09070C 18345.47658219 .00000069 00000-0 10000-3 0 9992
L22 36113 64.1799 164.9628 0003113 53.9764 9.3140 2.13092023 69981

Live tracking and technical data element details for COSMOS 2458 (734) (NORAD 36113). COSMOS 2458 (734) can be tracked NOW for your location showing map with azimuth and elevation plus other details from your city location.

Track the satellite on the map from your city or location and see movement details for azimuth, elevation, latitude, longitude, range, height, and movement on the map or in text.







IsCatalogInMostPopularTable: catalog: 36113, numindb: 56
Update: records affected: 1



GetName: 36113 COSMOS 2458 (734)

Hit Count: updated at: Thu, 13 Dec 2018 03:28:25 GMT